Location: Archemont
(49.1579°N, 1.7598°E)
Time: 21:35:00
(UTC+00:00)

Vanguard 2 - All Passes

Search period start: 12 April 2024 00:00
Search period end: 22 April 2024 00:00
Orbit: 553 x 2917 km, 32.9° (Epoch: 12 April)

Date Brightness Start Highest point End Pass type
(mag) Time Alt. Az. Time Alt. Az. Time Alt. Az.
12 Apr - 01:26:01 10° SSE 01:33:38 14° SE 01:41:02 10° ESE visible
12 Apr - 03:28:48 10° SSW 03:42:49 31° SSE 03:54:45 10° ESE visible
12 Apr - 05:37:45 10° WSW 05:52:41 39° S 06:03:40 10° ESE daylight
12 Apr - 07:49:21 10° WSW 08:01:48 33° SSW 08:10:28 10° SE daylight
12 Apr - 10:03:34 10° WSW 10:09:07 15° SW 10:13:39 10° SSW daylight
13 Apr - 01:37:29 10° S 01:47:48 19° SE 01:57:45 10° ESE visible
13 Apr - 03:42:29 10° SW 03:57:15 35° SSE 04:09:43 10° ESE visible
13 Apr - 05:52:09 10° WSW 06:07:13 40° S 06:18:16 10° ESE daylight
13 Apr - 08:04:09 10° WSW 08:16:08 30° SSW 08:24:37 10° SSE daylight
13 Apr - 10:20:30 10° WSW 10:23:08 11° SW 10:25:32 10° SSW daylight
14 Apr - 01:49:59 10° S 02:02:00 24° SE 02:13:35 10° ESE visible
14 Apr - 03:56:25 10° SW 04:11:42 38° SSE 04:24:32 10° ESE visible
14 Apr - 06:06:38 10° WSW 06:21:42 40° S 06:32:46 10° SE daylight
14 Apr - 08:19:05 10° W 08:30:23 27° SSW 08:38:35 10° SSE daylight
15 Apr - 00:07:06 10° SE 00:07:42 10° SE 00:08:18 10° SE visible
15 Apr - 02:03:03 10° SSW 02:16:14 28° SSE 02:28:58 10° E visible
15 Apr - 04:10:32 10° SW 04:26:11 41° S 04:39:16 10° ESE visible
15 Apr - 06:21:13 10° WSW 06:36:08 39° SSW 06:47:09 10° SE daylight
15 Apr - 08:34:12 10° W 08:44:32 23° SW 08:52:18 10° SSE daylight
16 Apr - 00:14:16 10° SSE 00:21:40 14° SE 00:29:20 10° ESE visible
16 Apr - 02:16:30 10° SSW 02:30:31 32° SSE 02:44:04 10° E visible
16 Apr - 04:24:47 10° WSW 04:40:40 43° S 04:53:54 10° ESE visible
16 Apr - 06:35:54 10° WSW 06:50:31 37° SSW 07:01:26 10° SE daylight
16 Apr - 08:49:37 10° WSW 08:58:35 19° SW 09:05:39 10° S daylight
17 Apr - 00:25:54 10° S 00:35:40 19° SE 00:46:00 10° ESE visible
17 Apr - 02:30:14 10° SW 02:44:50 36° SSE 02:58:59 10° ESE visible
17 Apr - 04:39:09 10° WSW 04:55:09 43° S 05:08:26 10° ESE daylight
17 Apr - 06:50:39 10° W 07:04:50 34° SSW 07:15:33 10° SE daylight
17 Apr - 09:05:32 10° WSW 09:12:33 15° SW 09:18:25 10° SSW daylight
18 Apr - 00:38:30 10° S 00:49:43 23° SE 01:01:47 10° E visible
18 Apr - 02:44:12 10° SW 02:59:13 39° SSE 03:13:46 10° ESE visible
18 Apr - 04:53:39 10° WSW 05:09:36 43° S 05:22:53 10° ESE daylight
18 Apr - 07:05:31 10° W 07:19:03 31° SSW 07:29:29 10° SSE daylight
18 Apr - 09:22:50 10° WSW 09:26:26 11° SW 09:29:44 10° SW daylight
19 Apr - 00:51:38 10° SSW 01:03:49 28° SSE 01:17:08 10° E visible
19 Apr - 02:58:18 10° SW 03:13:36 42° S 03:28:27 10° ESE visible
19 Apr - 05:08:11 10° WSW 05:24:00 42° SSW 05:37:14 10° SE daylight
19 Apr - 07:20:32 10° W 07:33:12 27° SSW 07:43:11 10° SSE daylight
19 Apr - 23:03:58 10° SSE 23:09:45 13° SE 23:16:01 10° ESE visible
20 Apr - 01:05:08 10° SSW 01:17:59 32° SSE 01:32:13 10° E visible
20 Apr - 03:12:34 10° WSW 03:28:02 44° S 03:43:03 10° ESE visible
20 Apr - 05:22:49 10° WSW 05:38:22 40° SSW 05:51:28 10° SE daylight
20 Apr - 07:35:48 10° W 07:47:14 23° SW 07:56:34 10° S daylight
20 Apr - 23:15:26 10° S 23:23:38 17° SE 23:32:56 10° ESE visible
21 Apr - 01:18:55 10° SW 01:32:13 36° SSE 01:47:06 10° E visible
21 Apr - 03:26:56 10° WSW 03:42:27 45° S 03:57:33 10° ESE visible
21 Apr - 05:37:33 10° W 05:52:40 37° SSW 06:05:32 10° SE daylight
21 Apr - 07:51:26 10° W 08:01:12 19° SW 08:09:28 10° S daylight
21 Apr - 23:28:01 10° S 23:37:34 22° SE 23:48:49 10° E visible
